N0KTA-2 Weather Reports


Display with metric or nautical units.
time (UTC)temp
F
wind
direction
speed
MPH
gust
MPH
rain 1hr
in
rain 24hr
in
rain mn
in
humidity
%
barometer
mb
20260831050823 86 191 2.0 7.0 0.00 0.00 0.00 47 1005.9
20260831045822 87 189 6.0 9.0 0.00 0.00 0.00 47 1005.9
20260831044823 87 193 5.0 8.0 0.00 0.00 0.00 46 1005.9
20260831043823 87 181 5.0 9.0 0.00 0.00 0.00 46 1005.8
20260831042822 87 179 5.0 10.0 0.00 0.00 0.00 46 1005.9
20260831041823 87 192 3.0 3.0 0.00 0.00 0.00 46 1006.0
20260831040823 88 187 3.0 7.0 0.00 0.00 0.00 45 1005.9
20260831035824 88 197 3.0 7.0 0.00 0.00 0.00 44 1006.1
20260831034823 89 191 3.0 6.0 0.00 0.00 0.00 44 1006.0
20260831033822 89 189 3.0 5.0 0.00 0.00 0.00 43 1006.0
20260831032823 90 184 3.0 7.0 0.00 0.00 0.00 43 1006.0
20260831031822 90 185 3.0 6.0 0.00 0.00 0.00 43 1005.9
20260831030823 90 203 2.0 3.0 0.00 0.00 0.00 42 1005.8
20260831025823 91 186 5.0 5.0 0.00 0.00 0.00 42 1005.8
20260831024824 91 192 3.0 5.0 0.00 0.00 0.00 42 1005.7
20260831023823 91 181 5.0 7.0 0.00 0.00 0.00 41 1005.6
20260831022822 92 190 5.0 8.0 0.00 0.00 0.00 41 1005.4
20260831021823 92 189 3.0 9.0 0.00 0.00 0.00 40 1005.3
20260831020823 92 189 3.0 3.0 0.00 0.00 0.00 40 1005.1
20260831015823 93 190 3.0 3.0 0.00 0.00 0.00 38 1005.2
20260831014824 93 187 5.0 7.0 0.00 0.00 0.00 38 1004.9
20260831013823 94 190 5.0 6.0 0.00 0.00 0.00 37 1004.8
20260831012824 95 189 5.0 6.0 0.00 0.00 0.00 37 1004.6
20260831011823 95 201 3.0 3.0 0.00 0.00 0.00 37 1004.6
20260831010823 96 190 6.0 12.0 0.00 0.00 0.00 36 1004.5
20260831005823 97 188 5.0 6.0 0.00 0.00 0.00 36 1004.5
20260831004822 97 187 5.0 6.0 0.00 0.00 0.00 35 1004.5
20260831003823 98 186 5.0 9.0 0.00 0.00 0.00 35 1004.5
20260831002823 99 193 6.0 10.0 0.00 0.00 0.00 34 1004.4
20260831001823 99 191 5.0 6.0 0.00 0.00 0.00 35 1004.5
20260831000823 99 191 6.0 10.0 0.00 0.00 0.00 34 1004.5
20260830235823 100 184 5.0 7.0 0.00 0.00 0.00 34 1004.5
20260830234823 101 204 5.0 13.0 0.00 0.00 0.00 34 1004.4
20260830233822 101 196 5.0 6.0 0.00 0.00 0.00 34 1004.3
20260830232823 101 184 7.0 12.0 0.00 0.00 0.00 34 1004.3
20260830231822 102 190 7.0 10.0 0.00 0.00 0.00 34 1004.1
20260830230823 102 180 6.0 12.0 0.00 0.00 0.00 33 1004.0
20260830225822 102 189 6.0 9.0 0.00 0.00 0.00 33 1003.9
20260830224823 102 119 3.0 17.0 0.00 0.00 0.00 33 1003.8
20260830223822 103 187 6.0 16.0 0.00 0.00 0.00 33 1003.7
20260830222823 103 199 8.0 15.0 0.00 0.00 0.00 33 1003.6
20260830221822 103 262 2.0 3.0 0.00 0.00 0.00 32 1003.5
20260830220823 103 213 3.0 12.0 0.00 0.00 0.00 34 1003.7
20260830215822 104 241 3.0 6.0 0.00 0.00 0.00 33 1003.6
20260830214823 104 223 3.0 10.0 0.00 0.00 0.00 32 1003.6
20260830213822 104 233 2.0 7.0 0.00 0.00 0.00 32 1003.6
20260830212824 104 259 7.0 10.0 0.00 0.00 0.00 32 1003.6
20260830211822 104 199 8.0 15.0 0.00 0.00 0.00 32 1003.7
20260830210824 104 190 10.0 15.0 0.00 0.00 0.00 32 1003.7
20260830205823 104 202 5.0 12.0 0.00 0.00 0.00 32 1003.9
20260830204824 104 269 2.0 5.0 0.00 0.00 0.00 31 1004.2
20260830203823 104 200 5.0 7.0 0.00 0.00 0.00 34 1004.2
20260830202822 103 192 9.0 15.0 0.00 0.00 0.00 33 1004.2
20260830201823 103 191 3.0 5.0 0.00 0.00 0.00 33 1004.3
20260830200822 103 194 5.0 14.0 0.00 0.00 0.00 33 1004.5
20260830195823 103 210 3.0 15.0 0.00 0.00 0.00 33 1004.6
20260830194822 103 221 6.0 12.0 0.00 0.00 0.00 33 1004.6
20260830193822 103 201 7.0 12.0 0.00 0.00 0.00 33 1004.6
20260830192823 102 268 3.0 9.0 0.00 0.00 0.00 35 1005.0
20260830191824 102 193 10.0 16.0 0.00 0.00 0.00 35 1004.9
20260830190822 102 198 5.0 10.0 0.00 0.00 0.00 36 1005.2
20260830185823 102 216 6.0 20.0 0.00 0.00 0.00 36 1005.2
20260830184822 101 238 1.0 6.0 0.00 0.00 0.00 36 1005.2
20260830183823 101 270 6.0 15.0 0.00 0.00 0.00 37 1005.3
20260830182823 100 194 6.0 12.0 0.00 0.00 0.00 36 1005.3
20260830181823 100 251 6.0 10.0 0.00 0.00 0.00 38 1005.5
20260830180823 99 185 14.0 21.0 0.00 0.00 0.00 39 1005.9
20260830175822 99 272 1.0 3.0 0.00 0.00 0.00 39 1005.9
20260830174823 98 195 6.0 12.0 0.00 0.00 0.00 39 1006.0
20260830173822 98 214 8.0 10.0 0.00 0.00 0.00 40 1006.4
20260830172823 98 277 3.0 6.0 0.00 0.00 0.00 42 1006.5
20260830171822 97 266 2.0 5.0 0.00 0.00 0.00 42 1006.7
20260830170823 96 231 2.0 5.0 0.00 0.00 0.00 43 1006.8
20260830165822 95 222 5.0 3.0 0.00 0.00 0.00 43 1006.9
20260830164823 95 200 8.0 13.0 0.00 0.00 0.00 43 1006.9
20260830163822 94 198 1.0 5.0 0.00 0.00 0.00 45 1007.1
20260830162822 93 200 5.0 17.0 0.00 0.00 0.00 46 1007.1
20260830161822 92 224 2.0 12.0 0.00 0.00 0.00 47 1007.2
20260830160823 92 230 5.0 9.0 0.00 0.00 0.00 47 1007.2
20260830155822 90 266 1.0 5.0 0.00 0.00 0.00 48 1007.2
20260830154823 90 192 5.0 12.0 0.00 0.00 0.00 50 1007.2
20260830153822 89 219 2.0 18.0 0.00 0.00 0.00 49 1007.3
20260830152822 88 210 5.0 6.0 0.00 0.00 0.00 50 1007.4
20260830151822 88 233 2.0 10.0 0.00 0.00 0.00 50 1007.3
20260830150823 88 234 3.0 9.0 0.00 0.00 0.00 50 1007.4
20260830145822 87 203 3.0 13.0 0.00 0.00 0.00 51 1007.3
20260830144822 87 220 2.0 3.0 0.00 0.00 0.00 52 1007.4
20260830143823 86 222 3.0 12.0 0.00 0.00 0.00 53 1007.6
20260830142822 85 207 5.0 10.0 0.00 0.00 0.00 54 1007.5
20260830141823 83 188 5.0 7.0 0.00 0.00 0.00 55 1007.8
20260830140822 83 192 2.0 3.0 0.00 0.00 0.00 57 1007.9
20260830135822 82 174 3.0 3.0 0.00 0.00 0.00 58 1007.9
20260830134823 81 189 5.0 12.0 0.00 0.00 0.00 58 1007.9
20260830133822 80 192 3.0 3.0 0.00 0.00 0.00 59 1008.0
20260830132822 79 182 6.0 10.0 0.00 0.00 0.00 59 1008.1
20260830131822 79 195 7.0 9.0 0.00 0.00 0.00 59 1008.1
20260830130823 79 182 6.0 7.0 0.00 0.00 0.00 60 1008.0
20260830125822 79 187 8.0 12.0 0.00 0.00 0.00 59 1008.0
20260830124823 79 186 7.0 13.0 0.00 0.00 0.00 59 1008.0
20260830123823 78 183 7.0 12.0 0.00 0.00 0.00 59 1008.0
20260830122822 78 190 5.0 9.0 0.00 0.00 0.00 59 1008.0
20260830121823 78 190 5.0 7.0 0.00 0.00 0.00 59 1007.9
20260830120822 78 185 6.0 10.0 0.00 0.00 0.00 59 1007.8
20260830115823 78 199 3.0 6.0 0.00 0.00 0.00 58 1007.8
20260830114821 78 193 5.0 7.0 0.00 0.00 0.00 58 1007.5
20260830113822 79 186 3.0 5.0 0.00 0.00 0.00 58 1007.4
20260830112822 79 192 5.0 7.0 0.00 0.00 0.00 58 1007.3
20260830111823 79 190 7.0 9.0 0.00 0.00 0.00 58 1007.3
20260830110821 79 190 6.0 12.0 0.00 0.00 0.00 58 1007.3
20260830105823 79 192 6.0 10.0 0.00 0.00 0.00 57 1007.4
20260830104822 79 189 3.0 6.0 0.00 0.00 0.00 57 1007.5
20260830103822 79 179 5.0 7.0 0.00 0.00 0.00 58 1007.3
20260830102821 79 186 6.0 12.0 0.00 0.00 0.00 57 1007.3
20260830101822 79 193 5.0 6.0 0.00 0.00 0.00 57 1007.3
20260830100823 79 190 3.0 9.0 0.00 0.00 0.00 57 1007.3
20260830095822 80 179 6.0 6.0 0.00 0.00 0.00 56 1007.1
20260830094823 80 190 5.0 9.0 0.00 0.00 0.00 56 1007.2
20260830093823 80 189 3.0 6.0 0.00 0.00 0.00 56 1007.1
20260830092822 80 195 7.0 10.0 0.00 0.00 0.00 56 1007.1
20260830091823 80 181 5.0 7.0 0.00 0.00 0.00 56 1007.1
20260830090823 80 185 3.0 6.0 0.00 0.00 0.00 56 1007.1
20260830085821 81 183 3.0 3.0 0.00 0.00 0.00 55 1007.0
20260830084823 81 184 2.0 3.0 0.00 0.00 0.00 55 1007.0
20260830083822 81 190 2.0 3.0 0.00 0.00 0.00 55 1007.0
20260830082823 82 178 2.0 6.0 0.00 0.00 0.00 54 1006.9
20260830081822 82 193 2.0 3.0 0.00 0.00 0.00 53 1006.9
20260830080822 83 190 3.0 5.0 0.00 0.00 0.00 53 1006.5
20260830075823 83 187 3.0 5.0 0.00 0.00 0.00 52 1006.6
20260830074822 83 186 1.0 3.0 0.00 0.00 0.00 52 1006.6
20260830073823 83 200 5.0 7.0 0.00 0.00 0.00 52 1006.6
20260830072822 83 183 5.0 9.0 0.00 0.00 0.00 52 1006.5
20260830071822 83 186 5.0 9.0 0.00 0.00 0.00 51 1006.7
20260830070821 84 183 5.0 9.0 0.00 0.00 0.00 51 1006.8
20260830065821 84 199 5.0 12.0 0.00 0.00 0.00 51 1007.0
20260830064823 84 185 5.0 12.0 0.00 0.00 0.00 50 1007.0
20260830063822 84 182 6.0 7.0 0.00 0.00 0.00 50 1006.8
20260830062823 84 188 6.0 12.0 0.00 0.00 0.00 50 1006.9
20260830061822 84 186 6.0 6.0 0.00 0.00 0.00 50 1007.0
20260830060823 84 188 7.0 9.0 0.00 0.00 0.00 50 1006.8
20260830055822 84 190 6.0 6.0 0.00 0.00 0.00 50 1007.1
20260830054823 84 186 8.0 12.0 0.00 0.00 0.00 51 1007.2
20260830053822 85 193 6.0 10.0 0.00 0.00 0.00 51 1007.1
20260830052823 85 192 8.0 12.0 0.00 0.00 0.00 50 1007.1
20260830051822 85 190 6.0 8.0 0.00 0.00 0.00 50 1007.2